Location: Kampong Bukit Kadir
(2.8044°N, 101.7809°E)
Time: 10:40:58
(UTC+00:00)

Daily predictions for brighter satellites

Satellite Brightness Start Highest point End
(mag) Time Altitude Azimuth Time Altitude Azimuth Time Altitude Azimuth
IRS-P3 4.1 12:00:28 10° SSE 12:05:46 80° ENE 12:11:03 10° N
Ariane H10+ 1.7 12:03:13 10° WSW 12:06:04 39° SSE 12:08:38 20° ESE
Cosmos 371 Rocket 3.2 12:03:14 10° N 12:07:58 65° ENE 12:12:41 10° SSE
NOSS 3-3 (C) 3.2 12:03:09 10° SSW 12:08:02 84° ESE 12:12:54 10° NNE
GPS 2-17 Rocket1 4.1 12:06:19 10° SW 12:09:47 24° SSE 12:11:10 20° SE
SEDSat Delta rocket 4.0 12:03:54 10° WSW 12:10:10 81° NNW 12:16:46 10° NE
Cosmos 1452 Rocket 3.5 12:07:01 10° SSW 12:12:15 88° W 12:17:28 10° NNE
Spot 4 Rocket 4.4 12:09:15 13° SE 12:13:29 41° ENE 12:18:14 10° N
Delta 198 4.5 12:09:16 10° WSW 12:15:37 75° NNW 12:21:41 10° ENE
Cosmos 2082 Rocket 2.1 12:10:59 10° S 12:16:39 71° ESE 12:22:19 10° NNE
Sich 1 Rocket 3.9 12:15:35 10° SSE 12:19:41 41° E 12:23:46 10° NNE
PSLV R/B 4.0 12:19:22 28° ESE 12:20:46 36° ENE 12:24:34 10° N
Cosmos 1302 Rocket 3.9 12:16:35 10° S 12:21:40 60° ESE 12:26:44 10° NNE
Ariane H10-3 2.0 12:19:51 10° W 12:22:33 69° S 12:23:08 47° ESE
Cosmos 1461 2.6 12:20:48 10° S 12:24:20 49° ESE 12:27:54 10° NE
Cosmos 407 Rocket 3.7 12:19:42 10° NNW 12:24:48 69° WSW 12:29:59 10° S
Ariane 3 Deb 3.7 12:22:45 10° WSW 12:26:49 64° SSE 12:34:20 21° E
Cosmos 2100 Rocket 3.9 12:22:03 10° S 12:28:06 61° E 12:34:12 10° NNE
BLOCK DM-SL R/B 1.2 12:27:50 10° W 12:29:56 77° S 12:30:41 48° ESE
Cosmos 2251 Rocket 3.8 12:25:28 10° N 12:30:34 47° ENE 12:32:30 33° SE
GPS 2-15 Rocket1 4.2 12:26:49 10° W 12:31:21 41° NNW 12:35:00 15° NE
Ariane H10+ 3.2 12:30:06 10° SW 12:30:52 14° SSW 12:30:52 14° SSW
Orbus 7S 3.7 12:30:08 10° WNW 12:32:43 51° W 12:32:43 51° W
Resurs 01 Rocket 1.5 12:29:45 16° S 12:33:14 89° WSW 12:37:34 10° NNW
CARTOSAT-1 4.2 12:29:30 10° S 12:33:35 53° WSW 12:37:40 10° NNW
SJ-6B 3.5 12:36:17 32° NE 12:36:17 32° NE 12:38:37 10° N
CZ-2D R/B 3.2 12:33:49 25° S 12:35:59 81° WSW 12:39:46 10° NNW
Meteor 1-27 4.5 12:37:00 28° SSE 12:39:34 44° E 12:44:54 10° NNE
Okean 2 Rocket 3.3 12:35:17 10° S 12:39:42 68° W 12:44:07 10° N
Aurora 2 Rocket 2.4 12:37:57 10° W 12:41:01 45° SSW 12:41:02 45° SSW
Cosmos 1862 4.1 12:37:52 10° NNW 12:41:14 44° W 12:43:43 17° SSW
SAR-Lupe-1 4.4 12:45:27 47° SSW 12:46:15 63° W 12:49:45 10° NNW
GPS 2-12 Rocket1 4.3 12:48:09 10° NW 12:51:51 27° NNE 12:52:06 27° NNE
Cosmos 1697 Rocket 4.3 12:48:59 10° NNE 12:51:07 18° NE 12:51:07 18° NE
SPOT 5 4.4 12:57:20 20° NNE 12:57:20 20° NNE 12:58:49 10° NNE
Cosmos 1455 Rocket 4.0 12:57:27 36° NNE 12:57:27 36° NNE 13:00:08 10° N
COSMOS 2406 3.1 12:51:00 10° S 12:56:43 71° ESE 13:02:24 10° NNE
Cosmos 1725 Rocket 3.9 12:54:33 33° SSE 12:57:26 65° E 13:03:38 10° NNE
SJ 16-02 3.5 13:08:47 10° NW 13:12:05 22° W 13:14:04 16° SW
Cosmos 2016 Rocket 3.8 13:10:58 59° SSE 13:12:15 82° E 13:18:31 10° N
Delta 202 4.0 13:08:16 10° WNW 13:13:24 52° NNE 13:13:26 52° NNE
ATLAS 3B R/B 4.4 13:09:16 10° NNE 13:12:01 17° NE 13:12:01 17° NE
ASTEX 1 4.1 13:18:01 47° N 13:18:01 47° N 13:21:30 10° N
Centaur D AC-29 3.7 18:40:45 10° WSW 19:52:24 43° N 19:55:58 10° NE
Ariane H10+ 4.3 20:13:50 64° WNW 20:16:47 77° N 20:32:19 10° E
USA 59 Rocket 2.9 20:32:20 19° SE 20:33:56 20° ESE 20:37:54 10° ENE
Cosmos 1943 Rocket 2.9 20:43:37 51° ENE 20:43:37 51° ENE 20:48:16 10° NNE
CZ-2C R/B 3.7 20:42:54 10° NE 20:46:13 34° ENE 20:46:13 34° ENE
ARIANE 5 R/B 3.3 20:55:59 47° SE 20:55:59 47° SE 21:07:19 10° E
USA 267 3.3 20:57:55 10° NNE 21:04:19 59° NW 21:04:37 59° WNW
Cosmos 2228 Rocket 3.9 21:11:55 44° N 21:11:55 44° N 21:14:59 10° N
Cosmos 2278 Rocket 2.1 21:10:32 68° S 21:11:17 85° ESE 21:16:57 10° NNE
GPS 2-15 Rocket1 3.7 21:12:36 47° N 21:12:51 48° NNE 21:17:15 10° E
USA 281 3.0 21:06:47 10° SSE 21:13:20 77° WSW 21:19:53 10° NNW
Meteor 2-5 Rocket 3.5 21:13:20 58° S 21:14:29 88° E 21:19:59 10° N
Hubble Space Telescope 2.7 21:18:13 19° SE 21:18:13 19° SE 21:20:23 10° ESE
Exosat Rocket 3.8 21:22:39 56° WSW 21:23:19 60° WNW 21:28:22 10° N
PAYLOAD A 3.8 21:19:10 10° N 21:24:08 85° WNW 21:25:40 47° SSW
ARIANE 5 R/B 3.3 21:29:05 19° SE 21:29:05 19° SE 21:29:51 10° ESE
OAO 2 Rocket 3.5 21:27:55 47° S 21:28:54 57° SE 21:33:39 10° ENE
Meteor 1-24 Rocket 3.9 21:35:47 41° W 21:35:54 41° W 21:40:58 10° NNW
HETE-2 4.1 21:38:45 75° SSW 21:38:54 77° S 21:42:35 10° E
NOSS 2-1 (D) 4.3 21:36:45 19° SSW 21:41:44 81° ESE 21:46:37 10° NNE
deb Ariane 3.4 21:41:41 49° WNW 21:42:26 74° N 21:49:38 10° E
USA 238 DEB 3.5 21:43:35 33° SW 21:45:56 53° WNW 21:51:41 10° N
USA 238 3.4 21:43:43 33° SW 21:46:08 54° WNW 21:51:54 10° N
Iridium 82 4.2 21:47:18 27° SSE 21:48:42 67° E 21:51:32 10° N
Timation 2 Rocket 3.9 21:46:04 25° SW 21:49:30 59° WNW 21:55:22 10° N
ARIANE 3 DEB 4.2 21:53:42 22° SSW 21:54:59 25° S 21:58:46 10° ESE
Cosmos 1959 Rocket 4.5 21:49:14 10° N 21:55:20 85° E 22:01:33 10° S
Cosmos 1900 4.4 21:51:23 10° NW 21:56:04 49° WSW 22:00:49 10° S
Cosmos 1867 3.5 21:50:48 10° NNW 21:56:08 63° WSW 22:01:28 10° SSE
Cosmos 1939 Rocket 3.2 21:52:43 10° N 21:56:16 39° WNW 21:57:19 32° WSW
Palapa 6 Rocket 4.2 21:55:00 27° SW 21:56:18 30° SSW 22:00:24 10° SE
Cosmos 468 4.4 21:52:08 10° SSW 21:57:20 89° W 22:02:32 10° NNE
Cosmos 2366 rocket 3.9 21:51:04 10° N 21:57:23 76° W 22:03:43 10° S
USA 307 2.9 21:55:41 24° WNW 21:57:36 42° WSW 22:01:12 10° SSE
Cosmos 614 Rocket 3.9 21:52:33 10° SSW 21:57:45 89° E 22:02:55 10° NNE
Cosmos 1733 Rocket 3.1 21:55:42 10° NNW 21:59:49 49° W 22:03:57 10° SSW
IRS-1D 4.3 21:55:55 10° NNE 22:01:06 56° ESE 22:06:14 10° S
Spelda 30 3.2 21:57:08 22° WSW 22:01:16 66° S 22:04:04 10° E
IUS-13 SRM-1 3.1 22:04:18 17° NW 22:05:05 20° NNW 22:07:43 10° NE
NOAA 12 4.0 22:00:41 10° N 22:05:52 76° WNW 22:11:07 10° SSW
SL-12 R/B(2) 3.9 22:00:14 11° SSW 22:07:04 70° WNW 22:14:39 10° NNE
Meteor 2-19 Rocket 4.4 22:01:14 10° S 22:07:25 88° W 22:13:35 10° N
ATLAS 2AS CENTAUR R/B 3.0 22:05:43 10° NW 22:12:05 41° WSW 22:18:37 10° S
IGS 5A 4.4 22:10:54 10° NNE 22:14:41 47° E 22:18:29 10° S
SL-16 R/B 2.8 22:10:11 10° S 22:16:08 47° WSW 22:22:05 10° NNW
Ariane H10 4.2 21:45:05 12° W 22:18:37 59° SSW 22:23:40 10° ESE
Cosmos 2369 Rocket 4.0 22:14:17 10° SSE 22:19:14 31° ESE 22:24:07 10° NE
NOSS 2-1 (E) 4.4 22:14:11 10° SW 22:21:00 55° WNW 22:25:51 10° N
ASC 2 Rocket 3.9 22:18:22 14° W 22:22:01 49° NNW 22:27:48 10° NE
USA 59 Rocket 1.5 22:17:55 12° SW 22:22:42 29° WNW 22:26:49 10° N
Cosmos 1821 Rocket 3.9 22:18:07 10° N 22:24:12 68° W 22:30:15 10° S
CZ-3 R/B 2.5 22:07:04 10° WNW 22:24:57 81° NNE 22:30:33 10° ESE
Cosmos 1833 Rocket 3.6 22:20:38 10° N 22:26:06 54° ENE 22:31:34 10° SSE
H-2A R/B 3.3 22:25:54 10° N 22:29:36 57° WNW 22:33:20 10° SSW
Cosmos 1869 3.3 22:28:23 10° N 22:31:45 66° E 22:35:08 10° S
Ariane 42L R/B 3.9 22:38:55 10° WSW 22:42:59 26° S 22:46:24 10° SE
SKYMED 2 4.5 22:38:44 10° SSE 22:42:59 56° ENE 22:47:14 10° N
Cosmos 1656 Rocket 4.1 22:40:45 10° SW 22:45:49 41° WNW 22:50:51 10° N
CZ-4C R/B 3.4 22:40:18 10° NNW 22:49:13 71° WSW 22:58:22 10° SSE
